Location: Gwatt
(46.7204°N, 7.6223°E)
Time: 11:26:03
(UTC+00:00)

ATLAS 2AS CENTAUR R/B - Pass Details

Date: 18 September 2020
Orbit: 939 x 1273 km, 63.7° (Epoch: 19 October)

Event Time Altitude Azimuth Distance (km) Brightness Sun altitude
Rises 19:12:26 0° 172° (S) 4,175 5.5 -17.2°
Reaches altitude 10° 19:15:43 10° 161° (SSE) 3,237 4.8 -17.7°
Enters shadow 19:16:57 14° 154° (SSE) 2,933 4.6 -17.9°
Exits shadow 19:24:45 21° 79° (ENE) 2,532 4.2 -19.1°
Drops below altitude 10° 19:28:04 10° 57° (ENE) 3,257 4.9 -19.6°
Sets 19:31:21 0° 46° (NE) 4,206 5.6 -20.2°
